Per Favore, prova con una nuova ricerca
| Simbolo | Borsa | Valuta | ||
|---|---|---|---|---|
| OHBG | Xetra | EUR | Ritardato | |
| OHB | Vienna | EUR | Tempo Reale | |
| OHBG | Francoforte | EUR | Ritardato | |
| OHBG | TradeGate | EUR | Ritardato |
| Data Inizio | Utente | Esprimiti | Apertura | Data Fine | Var. % |
|---|---|---|---|---|---|
| 01.09.2026 | JEANFR medina | 194.600 | +5.55% | ||
| 31.08.2026 | Edouard Mellet | 206.500 | -10.99% | ||
| 28.08.2026 | Shilian Han | 192.000 | -4.27% | ||
| 28.08.2026 | Stephan Aigner | 192.800 | -4.67% | ||
| 27.08.2026 | Edoardo Care | 189.200 | 28.08.2026 @ 189.600 | -0.21% | |
| 25.08.2026 | Giovanni Gelmetti | 194.600 | +5.55% | ||
| 24.08.2026 | Luis Martín Luis... | 203.000 | -9.46% | ||
| 21.08.2026 | the weldog | 229.000 | 24.08.2026 @ 200.500 | +12.45% | |
| 19.08.2026 | Daniel Lo Pinto | 245.000 | 24.08.2026 @ 200.500 | -18.16% | |
| 18.08.2026 | Janus Behrends | 254.000 | 24.08.2026 @ 200.500 | -21.06% | |
| 17.08.2026 | Rene Schneider | 269.500 | -31.80% | ||
| 13.08.2026 | Pasquale agirenonsubi | 266.500 | -31.03% | ||
| 12.08.2026 | Andreas Naumann | 254.000 | 17.08.2026 @ 265.500 | +4.53% | |
| 04.08.2026 | Alvaro Escudero | 245.000 | 10.08.2026 @ 227.500 | -7.14% | |
| 03.08.2026 | Lucas Arndorfer | 236.500 | 28.08.2026 @ 189.600 | -19.83% | |
| 31.07.2026 | Luis Martín Luis... | 235.000 | 21.08.2026 @ 220.000 | -6.38% | |
| 20.07.2026 | 246.000 | 14.08.2026 @ 259.000 | +5.28% | ||
| 18.07.2026 | Riccardo Brandtner | 242.000 | 20.07.2026 @ 243.500 | +0.62% | |
| 15.07.2026 | Matteo Pecora | 252.500 | 20.07.2026 @ 243.500 | -3.56% | |
| 14.07.2026 | Serkan Yilmaz | 265.500 | 07.08.2026 @ 231.000 | -12.99% | |
| 03.07.2026 | Alessandro Recchia | 289.500 | 24.07.2026 @ 239.500 | -17.27% | |
| 30.06.2026 | Judit Szabone | 283.500 | 24.07.2026 @ 239.500 | -15.52% | |
| 26.06.2026 | Steffen Augustin | 272.000 | 17.07.2026 @ 239.500 | +11.95% | |
| 25.06.2026 | Jan Bethig | 314.000 | 17.07.2026 @ 239.500 | -23.73% | |
| 25.06.2026 | Rocio atienza jurado | 334.000 | 29.06.2026 @ 282.500 | +15.42% | |
| 23.06.2026 | Csaba Kerezsi | 388.000 | 29.06.2026 @ 282.500 | +27.19% | |
| 22.06.2026 | Roberto Baronchelli | 405.500 | 29.06.2026 @ 282.500 | -30.33% | |
| 22.06.2026 | Mihail Dragomirescu | 405.500 | 22.06.2026 @ 395.000 | -2.59% | |
| 19.06.2026 | Pasquale agirenonsubi | 378.000 | 10.07.2026 @ 270.000 | -28.57% | |
| 19.06.2026 | Christian Scenini | 371.000 | 22.06.2026 @ 395.000 | -6.47% | |
| 17.06.2026 | Ygg drasil | 379.000 | 22.06.2026 @ 395.000 | -4.22% | |
| 17.06.2026 | Serkan Yilmaz | 438.500 | 10.07.2026 @ 270.000 | -38.43% | |
| 12.06.2026 | Claudio Randone | 406.500 | 15.06.2026 @ 399.000 | -1.85% | |
| 09.06.2026 | Sergi AN | 376.000 | 15.06.2026 @ 399.000 | +6.12% | |
| 08.06.2026 | Mauro Stradiotto | 376.000 | 08.06.2026 @ 416.500 | +10.77% | |
| 05.06.2026 | Sergi AN | 380.500 | 08.06.2026 @ 416.500 | -9.46% | |
| 05.06.2026 | Marco cappellaro | 383.500 | 26.06.2026 @ 272.000 | -29.07% | |
| 05.06.2026 | Ricardo Fresno | 374.000 | 08.06.2026 @ 416.500 | -11.36% | |
| 04.06.2026 | Jürgen Zöller | 358.000 | 26.06.2026 @ 272.000 | -24.02% | |
| 03.06.2026 | Shilian Han | 367.500 | 26.06.2026 @ 272.000 | +25.99% | |
| 03.06.2026 | Jota Sabadero | 366.000 | 26.06.2026 @ 272.000 | -25.68% | |
| 29.05.2026 | Sebastian Ritz | 472.500 | 01.06.2026 @ 419.500 | -11.22% | |
| 28.05.2026 | Giovanni Gelmetti | 498.000 | 19.06.2026 @ 394.000 | -20.88% | |
| 22.05.2026 | Sergi AN | 652.000 | 25.05.2026 @ 594.000 | -8.90% | |
| 22.05.2026 | Jesus Rodriguez | 587.000 | 12.06.2026 @ 409.000 | -30.32% | |
| 22.05.2026 | jj kinet | 608.000 | 12.06.2026 @ 409.000 | -32.73% | |
| 21.05.2026 | Format Jelly | 626.000 | 12.06.2026 @ 409.000 | -34.66% | |
| 21.05.2026 | heini niemeyer | 643.000 | 12.06.2026 @ 409.000 | +36.39% | |
| 21.05.2026 | Enrico Ristori | 641.000 | 12.06.2026 @ 409.000 | -36.19% | |
| 21.05.2026 | 654.000 | 12.06.2026 @ 409.000 | +37.46% |
Sei sicuro di voler bloccare %USER_NAME%?
Confermando il blocco tu e %USER_NAME% non potrete più vedere reciprocamente i vostri post su Investing.com.
%USER_NAME% è stato aggiunto correttamente alla lista di utenti bloccati
Poiché hai appena sbloccato questa persona, devi aspettare 48 ore prima di bloccarla nuovamente.
Considero questo commento come:
Grazie!
La tua segnalazione è stata inviata ai nostri moderatori che la esamineranno